WX4MMM Weather Reports


Display with metric or nautical units.
time (UTC)temp
F
wind
direction
speed
MPH
gust
MPH
rain 1hr
in
rain 24hr
in
rain mn
in
humidity
%
barometer
mb
20260504034503 43 180 0.0 0.0 0.00 0.10 0.00 83 1017.2
20260504033503 43 278 0.0 0.0 0.00 0.10 0.00 82 1017.2
20260504033003 43 278 0.0 0.0 0.00 0.10 0.00 83 1017.2
20260504032502 44 278 0.0 1.0 0.00 0.10 0.00 83 1017.2
20260504032003 44 340 0.0 1.0 0.00 0.10 0.00 82 1017.1
20260504031505 44 299 0.0 1.0 0.00 0.10 0.00 83 1017.1
20260504031003 44 332 0.0 1.0 0.00 0.10 0.00 81 1017.1
20260504030503 44 178 0.0 1.0 0.00 0.10 0.00 81 1017.1
20260504030003 44 280 0.0 0.0 0.00 0.10 0.00 81 1017.1
20260504025503 44 280 0.0 0.0 0.00 0.10 0.00 81 1017.1
20260504025003 44 280 0.0 1.0 0.00 0.10 0.00 80 1017.0
20260504024503 44 18 0.0 0.0 0.00 0.10 0.00 80 1017.0
20260504024003 45 18 0.0 0.0 0.00 0.10 0.00 79 1017.0
20260504022503 45 184 0.0 1.0 0.00 0.10 0.00 78 1017.0
20260504022003 45 263 0.0 0.0 0.00 0.10 0.00 78 1016.9
20260504021503 46 263 0.0 0.0 0.00 0.10 0.00 76 1017.0
20260504021003 46 263 0.0 0.0 0.00 0.10 0.00 76 1016.9
20260504020503 46 263 0.0 1.0 0.00 0.10 0.00 75 1017.0
20260504015503 46 317 0.0 1.0 0.00 0.10 0.00 75 1017.0
20260504015003 47 350 0.0 2.0 0.00 0.10 0.00 75 1017.0
20260504014503 47 214 0.0 2.0 0.00 0.10 0.00 75 1017.0
20260504013504 47 338 0.0 2.0 0.00 0.10 0.00 74 1017.0
20260504013003 48 18 0.0 0.0 0.00 0.10 0.00 73 1017.0
20260504012503 48 328 0.0 1.0 0.00 0.10 0.00 72 1016.8
20260504012004 49 339 0.0 1.0 0.00 0.10 0.00 72 1016.8
20260504011503 49 19 0.0 1.0 0.00 0.10 0.00 70 1016.8
20260504011003 49 21 0.0 0.0 0.00 0.10 0.00 69 1016.6
20260504010003 50 294 0.0 1.0 0.00 0.10 0.00 67 1016.4
20260504005503 51 311 0.0 1.0 0.00 0.10 0.00 66 1016.4
20260504004503 52 301 0.0 1.0 0.00 0.10 0.00 63 1016.3
20260504004003 52 208 0.0 1.0 0.00 0.10 0.00 62 1016.3
20260504003503 53 195 0.0 1.0 0.00 0.10 0.00 60 1016.2
20260504003003 53 187 0.0 1.0 0.00 0.10 0.00 59 1016.2
20260504002504 54 206 0.0 1.0 0.00 0.10 0.00 58 1016.2
20260504002003 54 222 0.0 1.0 0.00 0.10 0.00 57 1016.1
20260504001503 55 351 0.0 1.0 0.00 0.10 0.00 55 1016.1
20260504000003 57 222 0.0 1.0 0.00 0.10 0.00 49 1015.8
20260503235503 58 216 0.0 1.0 0.00 0.10 0.00 47 1015.8
20260503235004 58 222 0.0 1.0 0.00 0.10 0.00 44 1015.7
20260503234503 59 190 0.0 1.0 0.00 0.10 0.00 43 1015.7
20260503234003 60 324 0.0 1.0 0.00 0.10 0.00 42 1015.7
20260503233003 61 357 0.0 1.0 0.00 0.10 0.00 39 1015.7
20260503232503 61 12 0.0 1.0 0.00 0.10 0.00 39 1015.6
20260503231503 62 285 0.0 3.0 0.00 0.10 0.00 34 1015.6
20260503231003 62 150 0.0 3.0 0.00 0.10 0.00 34 1015.7
20260503230503 62 18 0.0 2.0 0.00 0.10 0.00 34 1015.6
20260503225503 63 4 0.0 1.0 0.00 0.10 0.00 32 1015.6
20260503225003 63 10 1.0 2.0 0.00 0.10 0.00 32 1015.6
20260503224503 64 328 1.0 3.0 0.00 0.10 0.00 30 1015.6
20260503224004 64 53 1.0 3.0 0.00 0.10 0.00 32 1015.7
20260503223503 64 185 1.0 2.0 0.00 0.10 0.00 30 1015.6
20260503223004 64 269 1.0 3.0 0.00 0.10 0.00 32 1015.5
20260503222503 64 247 1.0 3.0 0.00 0.10 0.00 33 1015.7
20260503220503 65 122 2.0 3.0 0.00 0.10 0.00 33 1015.6
20260503220004 65 135 2.0 3.0 0.00 0.10 0.00 30 1015.6
20260503215004 65 218 1.0 3.0 0.00 0.10 0.00 31 1015.6
20260503214503 65 160 1.0 2.0 0.00 0.10 0.00 30 1015.8
20260503213504 65 57 1.0 5.0 0.00 0.10 0.00 32 1015.8
20260503212503 65 306 1.0 5.0 0.00 0.10 0.00 29 1015.9
20260503212003 65 299 1.0 3.0 0.00 0.10 0.00 32 1015.9
20260503211502 64 178 1.0 3.0 0.00 0.10 0.00 32 1015.9
20260503210503 65 133 3.0 8.0 0.00 0.10 0.00 30 1016.0
20260503210003 65 231 2.0 6.0 0.00 0.10 0.00 34 1016.0
20260503205503 65 162 2.0 6.0 0.00 0.10 0.00 31 1015.9
20260503204503 65 295 1.0 5.0 0.00 0.10 0.00 29 1015.8
20260503203503 65 182 2.0 6.0 0.00 0.10 0.00 31 1015.9
20260503202503 65 37 2.0 7.0 0.00 0.10 0.00 30 1015.9
20260503202003 66 185 1.0 7.0 0.00 0.10 0.00 32 1016.0
20260503201003 65 326 2.0 5.0 0.00 0.10 0.00 31 1016.1
20260503200503 65 52 2.0 7.0 0.00 0.10 0.00 30 1016.3
20260503200004 65 121 2.0 6.0 0.00 0.10 0.00 30 1016.2
20260503194503 65 79 2.0 7.0 0.00 0.10 0.00 32 1016.4
20260503194003 65 352 1.0 6.0 0.00 0.10 0.00 34 1016.5
20260503193503 65 262 1.0 6.0 0.00 0.10 0.00 31 1016.5
20260503193004 65 47 2.0 9.0 0.00 0.10 0.00 34 1016.6
20260503192504 65 151 2.0 5.0 0.00 0.10 0.00 34 1016.5
20260503191503 64 125 1.0 9.0 0.00 0.10 0.00 32 1016.7
20260503190004 64 121 2.0 6.0 0.00 0.10 0.00 36 1017.0
20260503185504 64 133 3.0 7.0 0.00 0.10 0.00 35 1016.9
20260503185003 64 177 2.0 6.0 0.00 0.10 0.00 34 1017.0
20260503184504 64 156 2.0 5.0 0.00 0.10 0.00 34 1017.0
20260503184003 64 291 2.0 6.0 0.00 0.10 0.00 32 1017.1
20260503183503 64 313 1.0 6.0 0.00 0.10 0.00 34 1017.1
20260503182504 63 240 1.0 3.0 0.00 0.10 0.00 39 1017.1
20260503182005 63 276 1.0 5.0 0.00 0.10 0.00 36 1017.2
20260503181504 63 278 1.0 5.0 0.00 0.10 0.00 37 1017.2
20260503181003 63 254 1.0 6.0 0.00 0.10 0.00 39 1017.3
20260503180503 63 52 1.0 3.0 0.00 0.10 0.00 37 1017.3
20260503180004 62 308 2.0 6.0 0.00 0.10 0.00 40 1017.4
20260503175503 62 171 1.0 6.0 0.00 0.10 0.00 38 1017.5
20260503175003 62 248 1.0 5.0 0.00 0.10 0.00 36 1017.5
20260503174003 61 297 2.0 6.0 0.00 0.10 0.00 40 1017.7
20260503173503 60 105 2.0 6.0 0.00 0.10 0.00 38 1017.7
20260503173003 61 105 2.0 6.0 0.00 0.10 0.00 35 1017.8
20260503172504 61 137 3.0 7.0 0.00 0.10 0.00 38 1017.7
20260503172004 61 0 2.0 5.0 0.00 0.10 0.00 38 1017.8
20260503171503 61 101 2.0 7.0 0.00 0.10 0.00 37 1017.9
20260503171004 61 129 2.0 8.0 0.00 0.10 0.00 35 1018.1
20260503170504 61 250 1.0 6.0 0.00 0.10 0.00 41 1018.0
20260503151003 56 235 2.0 6.0 0.00 0.14 0.00 46 1019.0
20260503150504 56 313 3.0 8.0 0.00 0.14 0.00 44 1018.9
20260503131003 51 37 1.0 5.0 0.00 0.20 0.00 58 1018.8
20260503130503 50 84 1.0 3.0 0.00 0.20 0.00 62 1018.7
20260503110505 37 283 0.0 1.0 0.00 0.23 0.00 94 1017.8
20260503081503 40 304 0.0 1.0 0.00 0.24 0.00 92 1015.9
20260503081004 40 70 0.0 1.0 0.00 0.24 0.00 92 1015.8
20260503080504 40 234 0.0 3.0 0.00 0.24 0.00 92 1015.7
20260503072503 40 331 0.0 1.0 0.00 0.24 0.00 95 1015.1
20260503072004 40 239 0.0 1.0 0.00 0.24 0.00 95 1015.1
20260503071504 40 13 0.0 1.0 0.00 0.24 0.00 95 1015.0
20260503071004 40 52 0.0 1.0 0.00 0.24 0.00 96 1014.9
20260503070503 40 272 0.0 0.0 0.00 0.24 0.00 96 1014.9
20260503054503 42 285 0.0 0.0 0.00 0.24 0.00 96 1014.6
20260503054003 42 285 0.0 0.0 0.00 0.24 0.00 96 1014.7
20260503053503 42 285 0.0 0.0 0.00 0.24 0.00 96 1014.7
20260503053005 42 285 0.0 0.0 0.00 0.24 0.00 96 1014.7
20260503052503 42 285 0.0 0.0 0.00 0.24 0.00 96 1014.6
20260503052003 42 285 0.0 1.0 0.00 0.24 0.00 96 1014.6
20260503051004 42 18 0.0 0.0 0.00 0.24 0.00 96 1014.6
20260503050004 43 166 0.0 1.0 0.00 0.24 0.00 96 1014.7
20260503045504 43 201 0.0 0.0 0.10 0.24 0.00 96 1014.7
20260503045004 44 201 0.0 0.0 0.10 0.24 0.00 96 1014.6
20260503043504 44 299 0.0 1.0 0.10 0.24 0.00 96 1014.7
20260503043004 44 275 0.0 1.0 0.10 0.24 0.00 96 1014.6
20260503042503 44 193 0.0 1.0 0.10 0.24 0.00 96 1014.6
20260503042004 44 214 0.0 0.0 0.10 0.24 0.00 96 1014.7
20260503041504 44 214 0.0 1.0 0.10 0.24 0.00 96 1014.6
20260503041004 44 309 0.0 1.0 0.10 0.24 0.00 96 1014.5
20260503040504 44 258 0.0 1.0 0.10 0.24 0.00 96 1014.4
20260503035503 45 316 0.0 0.0 0.00 0.14 0.10 95 1014.4
20260503035004 45 322 0.0 1.0 0.00 0.14 0.10 95 1014.3